Location: Ferchesar
(52.6477°N, 12.4298°E)
Time: 06:32:20
(UTC+02:00)

Transit 4A - Pass Details

Date: 05 March 2021
Orbit: 869 x 976 km, 66.8° (Epoch: 12 April)

Event Time Altitude Azimuth Distance (km) Brightness Sun altitude
Rises 17:54:02 0° 320° (NW) 3,600 11.4 -0.4°
Reaches altitude 10° 17:56:37 10° 322° (NW) 2,636 10.7 -0.8°
Maximum altitude 18:02:45 77° 48° (NE) 936 7.9 -1.7°
Drops below altitude 10° 18:08:40 10° 135° (SE) 2,551 9.8 -2.6°
Sets 18:11:08 0° 137° (SE) 3,475 10.5 -3.0°
